N602FE KBOS-KMEM

Flight info

Callsign N602FE
Flight time N/A
Altitude 32000
Route BLZZR6 BLZZR BAF Q406 BWZ J6 HVQ Q68 RAMRD BLUZZ5
Aircraft MD11/H-SDE1E2E3FGHIJ2J3J4J5M1RWXY/LB1D1

Departure

Time N/A
Airport Boston Logan International Airport (KBOS)

Arrival

Time 2026-05-03 21:35
Airport Memphis International Airport (KMEM)
Time Latitude Longitude Altitude Speed Heading
2026-05-03 20:15 38.25627 -82.10222 32110 ft 354 kts 256°
2026-05-03 20:15 38.23970 -82.16118 32106 ft 354 kts 256°
2026-05-03 20:16 38.22312 -82.22011 32099 ft 354 kts 256°
2026-05-03 20:16 38.20651 -82.27907 32100 ft 354 kts 256°
2026-05-03 20:17 38.18986 -82.33769 32098 ft 355 kts 256°
2026-05-03 20:17 38.17291 -82.39673 32095 ft 355 kts 256°
2026-05-03 20:18 38.15601 -82.45580 32098 ft 356 kts 256°
2026-05-03 20:18 38.13912 -82.51480 32098 ft 355 kts 256°
2026-05-03 20:19 38.12225 -82.57377 32100 ft 356 kts 256°
2026-05-03 20:19 38.10531 -82.63278 32098 ft 356 kts 256°
2026-05-03 20:20 38.08834 -82.69173 32100 ft 355 kts 256°
2026-05-03 20:20 38.07135 -82.75063 32101 ft 355 kts 256°
2026-05-03 20:21 38.05434 -82.80949 32097 ft 355 kts 255°
2026-05-03 20:21 38.03729 -82.86841 32110 ft 356 kts 255°
2026-05-03 20:22 38.02020 -82.92731 32117 ft 356 kts 255°
2026-05-03 20:22 38.00307 -82.98619 32103 ft 356 kts 255°
2026-05-03 20:23 37.98596 -83.04479 32099 ft 352 kts 255°
2026-05-03 20:23 37.96898 -83.10288 32110 ft 351 kts 255°
2026-05-03 20:24 37.95204 -83.16076 32111 ft 350 kts 255°
2026-05-03 20:24 37.93510 -83.21860 32103 ft 350 kts 255°
2026-05-03 20:25 37.91811 -83.27634 32121 ft 350 kts 255°
2026-05-03 20:25 37.90100 -83.33402 32103 ft 350 kts 255°
2026-05-03 20:26 37.88372 -83.39162 32118 ft 350 kts 255°
2026-05-03 20:26 37.86657 -83.44922 32118 ft 350 kts 255°
2026-05-03 20:27 37.84947 -83.50682 32108 ft 349 kts 255°
2026-05-03 20:27 37.83241 -83.56422 32111 ft 349 kts 255°
2026-05-03 20:28 37.81529 -83.62167 32109 ft 349 kts 255°
2026-05-03 20:28 37.79828 -83.67867 32116 ft 349 kts 255°
2026-05-03 20:29 37.78114 -83.73596 32118 ft 349 kts 255°
2026-05-03 20:29 37.76396 -83.79332 32121 ft 349 kts 255°
2026-05-03 20:30 37.74673 -83.85067 32115 ft 349 kts 255°
2026-05-03 20:30 37.72944 -83.90815 32120 ft 350 kts 255°
2026-05-03 20:31 37.71211 -83.96568 32121 ft 350 kts 255°
2026-05-03 20:31 37.69477 -84.02306 32120 ft 349 kts 255°
2026-05-03 20:32 37.67743 -84.08029 32110 ft 349 kts 255°
2026-05-03 20:32 37.66009 -84.13745 32126 ft 349 kts 255°
2026-05-03 20:33 37.64251 -84.19447 32124 ft 348 kts 254°
2026-05-03 20:33 37.62496 -84.25137 32121 ft 348 kts 254°
2026-05-03 20:34 37.60745 -84.30834 32124 ft 348 kts 254°
2026-05-03 20:34 37.58997 -84.36524 32122 ft 348 kts 254°
2026-05-03 20:35 37.57250 -84.42209 32120 ft 348 kts 254°
2026-05-03 20:35 37.55500 -84.47888 32125 ft 347 kts 254°
2026-05-03 20:36 37.53750 -84.53558 32128 ft 347 kts 254°
2026-05-03 20:36 37.51997 -84.59227 32125 ft 347 kts 254°
2026-05-03 20:37 37.50244 -84.64883 32127 ft 347 kts 254°
2026-05-03 20:37 37.48488 -84.70536 32120 ft 347 kts 254°
2026-05-03 20:38 37.46724 -84.76191 32136 ft 347 kts 254°
2026-05-03 20:38 37.44975 -84.81810 32130 ft 347 kts 254°
2026-05-03 20:39 37.43218 -84.87468 32132 ft 347 kts 253°
2026-05-03 20:39 37.41462 -84.93120 32139 ft 347 kts 253°
2026-05-03 20:40 37.39704 -84.98771 32145 ft 347 kts 254°
2026-05-03 20:40 37.37941 -85.04408 32142 ft 346 kts 253°
2026-05-03 20:41 37.36172 -85.10043 32153 ft 347 kts 253°
2026-05-03 20:41 37.34402 -85.15688 32162 ft 347 kts 253°
2026-05-03 20:42 37.32630 -85.21331 32166 ft 347 kts 253°
2026-05-03 20:42 37.30859 -85.26959 32172 ft 347 kts 253°
2026-05-03 20:43 37.29088 -85.32582 32172 ft 346 kts 253°
2026-05-03 20:43 37.27316 -85.38199 32172 ft 346 kts 253°
2026-05-03 20:44 37.25543 -85.43806 32163 ft 346 kts 253°
2026-05-03 20:44 37.23765 -85.49410 32163 ft 346 kts 253°
2026-05-03 20:45 37.21986 -85.55011 32164 ft 345 kts 253°
2026-05-03 20:45 37.20204 -85.60608 32156 ft 345 kts 253°
2026-05-03 20:46 37.18422 -85.66201 32153 ft 346 kts 253°
2026-05-03 20:46 37.16636 -85.71795 32152 ft 346 kts 253°
2026-05-03 20:47 37.14846 -85.77387 32153 ft 345 kts 253°
2026-05-03 20:47 37.13357 -85.82034 32156 ft 346 kts 253°
2026-05-03 20:48 37.11561 -85.87624 32155 ft 346 kts 253°
2026-05-03 20:48 37.09762 -85.93208 32155 ft 346 kts 253°
2026-05-03 20:49 37.07957 -85.98789 32153 ft 346 kts 252°
2026-05-03 20:49 37.06131 -86.04360 32151 ft 346 kts 252°
2026-05-03 20:50 37.04311 -86.09938 32154 ft 346 kts 252°
2026-05-03 20:50 37.02497 -86.15516 32155 ft 346 kts 252°
2026-05-03 20:51 37.00682 -86.21105 32156 ft 347 kts 252°
2026-05-03 20:51 36.98862 -86.26687 32161 ft 346 kts 252°
2026-05-03 20:52 36.97045 -86.32259 32163 ft 346 kts 252°
2026-05-03 20:52 36.95224 -86.37829 32163 ft 346 kts 252°
2026-05-03 20:53 36.93122 -86.43280 32164 ft 350 kts 248°
2026-05-03 20:53 36.90786 -86.48610 32164 ft 350 kts 248°
2026-05-03 20:54 36.88439 -86.53941 32164 ft 350 kts 247°
2026-05-03 20:54 36.84930 -86.61927 32162 ft 350 kts 247°
2026-05-03 20:55 36.82588 -86.67258 32162 ft 350 kts 247°
2026-05-03 20:55 36.80244 -86.72592 32165 ft 350 kts 247°
2026-05-03 20:56 36.77901 -86.77918 32169 ft 350 kts 247°
2026-05-03 20:56 36.75556 -86.83241 32164 ft 350 kts 247°
2026-05-03 20:57 36.73205 -86.88564 32162 ft 350 kts 247°
2026-05-03 20:57 36.70858 -86.93871 32164 ft 350 kts 247°
2026-05-03 20:58 36.68502 -86.99189 32172 ft 351 kts 247°
2026-05-03 20:58 36.66145 -87.04507 32172 ft 350 kts 247°
2026-05-03 20:59 36.63803 -87.09776 32173 ft 350 kts 247°
2026-05-03 20:59 36.61445 -87.15075 32173 ft 350 kts 247°
2026-05-03 21:00 36.59469 -87.19509 32179 ft 350 kts 247°
2026-05-03 21:00 36.56718 -87.25667 32190 ft 350 kts 247°
2026-05-03 21:01 36.54351 -87.30952 32185 ft 349 kts 247°
2026-05-03 21:01 36.51967 -87.36213 32194 ft 350 kts 246°
2026-05-03 21:02 36.49585 -87.41487 32195 ft 349 kts 246°
2026-05-03 21:02 36.47215 -87.46748 32198 ft 349 kts 246°
2026-05-03 21:03 36.44846 -87.52013 32203 ft 349 kts 246°
2026-05-03 21:03 36.42476 -87.57270 32197 ft 348 kts 246°
2026-05-03 21:04 36.40108 -87.62515 32204 ft 348 kts 246°
2026-05-03 21:04 36.37737 -87.67760 32199 ft 348 kts 246°
2026-05-03 21:05 36.35364 -87.73004 32195 ft 349 kts 246°
2026-05-03 21:05 36.32991 -87.78238 32199 ft 348 kts 246°
2026-05-03 21:06 36.30600 -87.83453 32192 ft 348 kts 246°
2026-05-03 21:06 36.28206 -87.88662 32192 ft 348 kts 246°
2026-05-03 21:07 36.25816 -87.93874 32192 ft 347 kts 246°
2026-05-03 21:07 36.23430 -87.99081 32191 ft 347 kts 246°
2026-05-03 21:08 36.21041 -88.04279 32197 ft 347 kts 246°
2026-05-03 21:08 36.18653 -88.09471 32198 ft 347 kts 246°
2026-05-03 21:09 36.16282 -88.14628 32199 ft 347 kts 246°
2026-05-03 21:09 36.13900 -88.19792 32198 ft 347 kts 245°
2026-05-03 21:10 36.11502 -88.24970 32201 ft 347 kts 245°
2026-05-03 21:10 36.10318 -88.27523 32162 ft 332 kts 246°
2026-05-03 21:10 36.09192 -88.29942 31867 ft 317 kts 246°
2026-05-03 21:11 36.08098 -88.32298 31491 ft 317 kts 246°
2026-05-03 21:11 36.07004 -88.34671 31036 ft 319 kts 246°
2026-05-03 21:11 36.05901 -88.37058 30579 ft 322 kts 247°
2026-05-03 21:11 36.04785 -88.39469 30117 ft 325 kts 247°
2026-05-03 21:12 36.03660 -88.41896 29605 ft 327 kts 247°
2026-05-03 21:12 36.02525 -88.44341 29100 ft 329 kts 247°
2026-05-03 21:12 36.01390 -88.46796 28595 ft 331 kts 247°
2026-05-03 21:12 36.00250 -88.49259 28085 ft 331 kts 247°
2026-05-03 21:13 35.99107 -88.51722 27576 ft 332 kts 246°
2026-05-03 21:13 35.97953 -88.54203 27066 ft 334 kts 246°
2026-05-03 21:13 35.96798 -88.56692 26556 ft 335 kts 246°
2026-05-03 21:13 35.95638 -88.59183 26040 ft 334 kts 246°
2026-05-03 21:14 35.94478 -88.61673 25526 ft 335 kts 246°
2026-05-03 21:14 35.93312 -88.64175 25006 ft 337 kts 246°
2026-05-03 21:14 35.92145 -88.66681 24492 ft 337 kts 246°
2026-05-03 21:14 35.90973 -88.69192 23975 ft 338 kts 246°
2026-05-03 21:15 35.89800 -88.71706 23461 ft 339 kts 246°
2026-05-03 21:15 35.88627 -88.74220 22934 ft 338 kts 246°
2026-05-03 21:15 35.87454 -88.76733 22416 ft 338 kts 246°
2026-05-03 21:15 35.86279 -88.79245 21903 ft 338 kts 246°
2026-05-03 21:16 35.85103 -88.81757 21381 ft 338 kts 245°
2026-05-03 21:16 35.83926 -88.84267 20866 ft 338 kts 245°
2026-05-03 21:16 35.82752 -88.86767 20346 ft 336 kts 245°
2026-05-03 21:16 35.81583 -88.89259 19833 ft 336 kts 245°
2026-05-03 21:17 35.80412 -88.91757 19311 ft 336 kts 245°
2026-05-03 21:17 35.79637 -88.93409 18968 ft 336 kts 245°
2026-05-03 21:17 35.78071 -88.96742 18280 ft 336 kts 244°
2026-05-03 21:17 35.76900 -88.99230 17765 ft 336 kts 245°
2026-05-03 21:18 35.75729 -89.01714 17251 ft 335 kts 244°
2026-05-03 21:18 35.74562 -89.04192 16737 ft 335 kts 244°
2026-05-03 21:18 35.73286 -89.06547 16212 ft 338 kts 237°
2026-05-03 21:18 35.71752 -89.08757 15557 ft 338 kts 233°
2026-05-03 21:19 35.70147 -89.10865 14988 ft 338 kts 231°
2026-05-03 21:19 35.68522 -89.12948 14435 ft 338 kts 231°
2026-05-03 21:19 35.66904 -89.15024 13903 ft 334 kts 231°
2026-05-03 21:19 35.65302 -89.17094 13379 ft 334 kts 231°
2026-05-03 21:20 35.63708 -89.19163 12858 ft 333 kts 231°
2026-05-03 21:20 35.62115 -89.21232 12338 ft 333 kts 230°
2026-05-03 21:20 35.60531 -89.23287 11831 ft 328 kts 231°
2026-05-03 21:20 35.59024 -89.25355 11412 ft 320 kts 233°
2026-05-03 21:21 35.57602 -89.27437 11028 ft 318 kts 233°
2026-05-03 21:21 35.56202 -89.29533 10661 ft 317 kts 233°
2026-05-03 21:21 35.54820 -89.31610 10474 ft 308 kts 233°
2026-05-03 21:21 35.53494 -89.33599 10344 ft 294 kts 233°
2026-05-03 21:22 35.52223 -89.35503 10220 ft 282 kts 233°
2026-05-03 21:22 35.51010 -89.37319 10103 ft 267 kts 233°
2026-05-03 21:22 35.49901 -89.39100 10002 ft 258 kts 240°
2026-05-03 21:22 35.49029 -89.40998 9972 ft 256 kts 245°
2026-05-03 21:23 35.48237 -89.42949 9913 ft 255 kts 246°
2026-05-03 21:23 35.47458 -89.44910 9847 ft 255 kts 246°
2026-05-03 21:23 35.46683 -89.46870 9783 ft 255 kts 246°
2026-05-03 21:23 35.45910 -89.48824 9743 ft 255 kts 246°
2026-05-03 21:24 35.45136 -89.50781 9694 ft 256 kts 246°
2026-05-03 21:24 35.44358 -89.52742 9618 ft 255 kts 246°
2026-05-03 21:24 35.43582 -89.54702 9557 ft 256 kts 246°
2026-05-03 21:24 35.42804 -89.56661 9496 ft 255 kts 246°
2026-05-03 21:25 35.42027 -89.58617 9445 ft 255 kts 246°
2026-05-03 21:25 35.41250 -89.60575 9372 ft 255 kts 246°
2026-05-03 21:25 35.40473 -89.62531 9307 ft 255 kts 246°
2026-05-03 21:25 35.39694 -89.64490 9247 ft 255 kts 246°
2026-05-03 21:26 35.38918 -89.66440 9181 ft 255 kts 246°
2026-05-03 21:26 35.38141 -89.68394 9124 ft 255 kts 246°
2026-05-03 21:26 35.37364 -89.70346 9052 ft 256 kts 246°
2026-05-03 21:26 35.36585 -89.72303 8822 ft 255 kts 246°
2026-05-03 21:27 35.35808 -89.74252 8622 ft 254 kts 246°
2026-05-03 21:27 35.35035 -89.76192 8340 ft 250 kts 246°
2026-05-03 21:27 35.34312 -89.77997 7987 ft 226 kts 246°
2026-05-03 21:27 35.33649 -89.79648 7589 ft 209 kts 246°
2026-05-03 21:28 35.33019 -89.81227 7252 ft 205 kts 246°
2026-05-03 21:28 35.32396 -89.82791 6933 ft 204 kts 247°
2026-05-03 21:28 35.31773 -89.84352 6599 ft 204 kts 246°
2026-05-03 21:28 35.31148 -89.85911 6268 ft 204 kts 246°
2026-05-03 21:29 35.30527 -89.87463 5936 ft 203 kts 246°
2026-05-03 21:29 35.29906 -89.89012 5594 ft 203 kts 246°
2026-05-03 21:29 35.29284 -89.90563 5295 ft 203 kts 246°
2026-05-03 21:29 35.28664 -89.92112 4976 ft 202 kts 247°
2026-05-03 21:30 35.28047 -89.93656 4671 ft 202 kts 247°
2026-05-03 21:30 35.27413 -89.95191 4419 ft 202 kts 242°
2026-05-03 21:30 35.26535 -89.96552 4262 ft 208 kts 224°
2026-05-03 21:30 35.25283 -89.97403 3808 ft 206 kts 195°
2026-05-03 21:31 35.23852 -89.97574 3485 ft 208 kts 181°
2026-05-03 21:31 35.22410 -89.97572 3166 ft 209 kts 179°
2026-05-03 21:31 35.20958 -89.97551 2847 ft 208 kts 179°
2026-05-03 21:31 35.19511 -89.97535 2529 ft 206 kts 178°
2026-05-03 21:32 35.18113 -89.97514 2238 ft 194 kts 179°
2026-05-03 21:32 35.16807 -89.97496 1993 ft 182 kts 178°
2026-05-03 21:32 35.15546 -89.97473 1975 ft 180 kts 178°
2026-05-03 21:32 35.14714 -89.97458 1980 ft 180 kts 178°
2026-05-03 21:33 35.13460 -89.97435 1975 ft 181 kts 179°
2026-05-03 21:33 35.12195 -89.97410 1865 ft 183 kts 179°
2026-05-03 21:33 35.10939 -89.97383 1549 ft 179 kts 179°
2026-05-03 21:33 35.09295 -89.97360 1156 ft 176 kts 179°
2026-05-03 21:34 35.08062 -89.97346 952 ft 177 kts 179°
2026-05-03 21:34 35.07235 -89.97342 803 ft 175 kts 180°
2026-05-03 21:34 35.06013 -89.97321 595 ft 174 kts 178°
2026-05-03 21:34 35.04821 -89.97295 357 ft 163 kts 179°
2026-05-03 21:35 35.03825 -89.97274 335 ft 123 kts 179°
2026-05-03 21:35 35.03109 -89.97263 334 ft 86 kts 179°
2026-05-03 21:35 35.02663 -89.97247 334 ft 29 kts 179°
2026-05-03 21:35 35.02570 -89.97178 335 ft 16 kts 120°
2026-05-03 21:36 35.02582 -89.97072 333 ft 12 kts 51°
2026-05-03 21:36 35.02645 -89.97029 334 ft 10 kts 12°
2026-05-03 21:36 35.02709 -89.97026 335 ft 11 kts 359°
2026-05-03 21:36 35.02792 -89.97040 333 ft 14 kts 348°
2026-05-03 21:37 35.02899 -89.97071 335 ft 18 kts 347°
2026-05-03 21:37 35.03034 -89.97076 335 ft 21 kts
2026-05-03 21:37 35.03192 -89.97079 336 ft 23 kts 359°
2026-05-03 21:37 35.03345 -89.97082 336 ft 21 kts 359°
2026-05-03 21:38 35.03486 -89.97088 335 ft 19 kts 358°
2026-05-03 21:38 35.03611 -89.97088 334 ft 17 kts
2026-05-03 21:38 35.03723 -89.97090 334 ft 15 kts 357°
2026-05-03 21:38 35.03823 -89.97088 335 ft 14 kts
2026-05-03 21:39 35.03917 -89.97084 336 ft 14 kts 356°
2026-05-03 21:39 35.04024 -89.97096 333 ft 17 kts 353°
2026-05-03 21:39 35.04147 -89.97102 334 ft 19 kts
2026-05-03 21:39 35.04284 -89.97093 333 ft 21 kts 358°
2026-05-03 21:40 35.04431 -89.97083 334 ft 22 kts
2026-05-03 21:40 35.04590 -89.97059 334 ft 24 kts
2026-05-03 21:40 35.04760 -89.97056 335 ft 25 kts 359°
2026-05-03 21:40 35.04937 -89.97069 335 ft 24 kts 355°
2026-05-03 21:41 35.05095 -89.97058 335 ft 22 kts 11°
2026-05-03 21:41 35.05239 -89.97026 335 ft 20 kts
2026-05-03 21:41 35.05370 -89.97005 335 ft 18 kts
2026-05-03 21:41 35.05487 -89.96980 335 ft 16 kts
2026-05-03 21:42 35.05593 -89.96959 332 ft 14 kts
2026-05-03 21:42 35.05687 -89.96941 336 ft 13 kts
2026-05-03 21:42 35.05776 -89.96929 332 ft 13 kts
2026-05-03 21:42 35.05856 -89.96913 335 ft 10 kts
2026-05-03 21:43 35.05903 -89.96891 335 ft 5 kts 37°
2026-05-03 21:43 35.05921 -89.96860 336 ft 5 kts 65°
2026-05-03 21:43 35.05926 -89.96794 338 ft 11 kts 91°
2026-05-03 21:43 35.05918 -89.96686 335 ft 14 kts 91°
2026-05-03 21:44 35.05930 -89.96580 333 ft 9 kts 60°
2026-05-03 21:44 35.05972 -89.96533 338 ft 10 kts 35°
2026-05-03 21:44 35.06035 -89.96472 335 ft 12 kts 54°
2026-05-03 21:44 35.06045 -89.96364 336 ft 13 kts 92°
2026-05-03 21:45 35.06052 -89.96329 338 ft 3 kts 52°
2026-05-03 21:45 35.06085 -89.96311 338 ft 3 kts
2026-05-03 21:45 35.06110 -89.96309 334 ft 2 kts
2026-05-03 21:45 35.06111 -89.96309 338 ft 0 kts